STARLINK-37361, 69134

Orbit data source: Space-Track

STARLINK-37361, 69134 is a payload satellite owned by SpaceX/Seattle (US) in SSO that was launched on Wed, 20 May 2026 UTC via an FALCON 9 launch vehicle from the Air Force Western Test Range (AFWTR). Payload-class satellites include a variety of spacecraft equipped with specific instruments for various scientific and technological missions. These include communications satellites like Starlink; space stations such as the ISS; scientific satellites like the Hubble; Earth observation satellites from companies like Planet Labs, Umbra, and HawkEye 360; GPS; miniature CubeSats for education and research; and military/defense satellites.

Loading next visibility...
Identifier
69134, 2026-110L
Orbit
SSO
Country
Flag of USUS
Related business
Manufacturer
SpaceX/Seattle
Mission
Operational spacecraft
Bus & Motor
STARLINK V2MO, Unknown motor
Mass
575 kg wet, ~530 kg dry
Launch date (UTC)
2026-05-20 (1 month ago)
Launch vehicle
FALCON 9
Launch site
Air Force Western Test Range (AFWTR)
Object type
Payload
Rocket body
Debris
Shape & HBR
Unknown shape, 14.5 m
Radar Cross Section
Large (>1 m²)

Expand to show TLE details & history
Last TLE update: 9 hours ago

TLE from 9 hours ago
0 STARLINK-37361
1 69134U 26110L   26171.47709083  .00022950  00000-0  71074-3 0  9998
2 69134  97.2862   7.8463 0003533 102.1328 258.0310 15.33454514  6110
Epoch: 2026-06-20T11:27Z
TLE epoch observation values (Epoch: 2026-06-20T11:27:00.647Z)
Latitude
-0.00011°
Longitude
-72.59754°
Altitude
469.129 km
Speed
7.631 km/s
True Right ascension
00h 31m 23s
True Declination
0° 00' 00"
Sunlit
Object was in daylight at epoch
Visualization orbit readout
Latitude
Unknown
Longitude
Unknown
Altitude
Unknown
Speed
Unknown
Apparent Right ascension
Unknown
Apparent Declination
Unknown
Sunlit
N/A
Visualization observer readout
Local Sidereal Time
07:13:34
Azimuth
Unknown
Elevation
Unknown
Doppler factor
Unknown
Orbital elements
Apogee altitude
464.874 km
Perigee altitude
460.041 km
Semi-major axis
6,840.595 km
Eccentricity
0.00035
Inclination
97.2862°
RAAN
7.8463°
Arg. of periapsis
102.1328°
True anomaly
257.9914°
Mean anomaly
258.031°
Eccentric anomaly
258.0112°
Mean motion
3.83621 °/min
Orbital period
93.84 mins
BSTAR
0.00071074
Loading maneuver chart data...
Computing Atmospheric mass density...
Loading historical data...
Loading historical data...
Loading historical data...
Loading historical data...
Loading historical data...
Loading historical data...
Loading historical data...

Documentation

Showing up to 5 results
|